Time,TemperatureF,DewpointF,PressureIn,WindDirection,WindDirectionDegrees,WindSpeedMPH,WindSpeedGustMPH,Humidity,HourlyPrecipIn,Conditions,Clouds,dailyrainin,SoftwareType,DateUTC
2013-04-09 00:00:00,67.0,52.2,30.06,South,180,3.6,3.6,59,0.00,,,0.00,WUHU216HW,2013-04-09 04:00:00,
2013-04-09 00:05:00,67.0,52.2,30.06,SSE,158,2.0,4.0,59,0.00,,,0.00,WUHU216HW,2013-04-09 04:05:00,
2013-04-09 00:10:00,66.8,52.5,30.06,SE,135,1.1,4.0,60,0.00,,,0.00,WUHU216HW,2013-04-09 04:10:00,
2013-04-09 00:15:00,66.6,52.4,30.06,SE,135,1.1,2.7,60,0.00,,,0.00,WUHU216HW,2013-04-09 04:15:00,
2013-04-09 00:20:00,66.6,51.8,30.06,South,180,1.1,2.7,59,0.00,,,0.00,WUHU216HW,2013-04-09 04:20:00,
2013-04-09 00:25:00,66.6,52.4,30.06,South,180,2.7,3.4,60,0.00,,,0.00,WUHU216HW,2013-04-09 04:25:00,
2013-04-09 00:30:00,66.4,52.6,30.06,SE,135,1.8,4.3,61,0.00,,,0.00,WUHU216HW,2013-04-09 04:30:00,
2013-04-09 00:35:00,66.4,52.6,30.06,SSE,158,2.9,4.3,61,0.00,,,0.00,WUHU216HW,2013-04-09 04:35:00,
2013-04-09 00:40:00,66.2,52.5,30.06,ESE,113,2.2,3.1,61,0.00,,,0.00,WUHU216HW,2013-04-09 04:40:00,
2013-04-09 00:45:00,66.1,52.7,30.07,SSE,158,1.3,3.1,62,0.00,,,0.00,WUHU216HW,2013-04-09 04:45:00,
2013-04-09 00:50:00,66.1,52.7,30.07,SE,135,0.4,2.2,62,0.00,,,0.00,WUHU216HW,2013-04-09 04:50:00,
2013-04-09 00:55:00,65.9,52.9,30.07,SW,225,0.0,2.0,63,0.00,,,0.00,WUHU216HW,2013-04-09 04:55:00,
2013-04-09 01:00:00,65.7,53.2,30.07,SE,135,0.9,4.0,64,0.00,,,0.00,WUHU216HW,2013-04-09 05:00:00,
2013-04-09 01:05:00,65.7,53.2,30.07,SSW,203,0.0,4.0,64,0.00,,,0.00,WUHU216HW,2013-04-09 05:05:00,
2013-04-09 01:10:00,65.5,53.0,30.07,SSE,158,1.8,2.0,64,0.00,,,0.00,WUHU216HW,2013-04-09 05:10:00,
2013-04-09 01:15:00,65.5,53.4,30.07,SSW,203,1.1,2.0,65,0.00,,,0.00,WUHU216HW,2013-04-09 05:15:00,
2013-04-09 01:20:00,65.3,53.3,30.08,WSW,248,0.4,2.0,65,0.00,,,0.00,WUHU216HW,2013-04-09 05:20:00,
2013-04-09 01:25:00,65.3,53.3,30.08,South,180,1.8,2.0,65,0.00,,,0.00,WUHU216HW,2013-04-09 05:25:00,
2013-04-09 01:30:00,65.2,53.1,30.08,SSE,158,0.9,1.8,65,0.00,,,0.00,WUHU216HW,2013-04-09 05:30:00,
2013-04-09 01:35:00,65.2,53.5,30.08,SSE,158,0.2,1.6,66,0.00,,,0.00,WUHU216HW,2013-04-09 05:35:00,
2013-04-09 01:40:00,65.0,53.3,30.08,SSE,158,0.4,2.5,66,0.00,,,0.00,WUHU216HW,2013-04-09 05:40:00,
2013-04-09 01:45:00,65.0,53.3,30.08,South,180,0.2,2.5,66,0.00,,,0.00,WUHU216HW,2013-04-09 05:45:00,
2013-04-09 01:50:00,64.8,53.2,30.08,SW,225,0.4,1.8,66,0.00,,,0.00,WUHU216HW,2013-04-09 05:50:00,
2013-04-09 01:55:00,64.8,53.2,30.08,South,180,0.7,1.8,66,0.00,,,0.00,WUHU216HW,2013-04-09 05:55:00,
2013-04-09 02:00:00,64.8,53.2,30.07,South,180,1.1,1.8,66,0.00,,,0.00,WUHU216HW,2013-04-09 06:00:00,
2013-04-09 02:05:00,64.6,53.0,30.07,SSE,158,1.3,1.3,66,0.00,,,0.00,WUHU216HW,2013-04-09 06:05:00,
2013-04-09 02:10:00,64.6,53.0,30.07,SE,135,0.7,1.8,66,0.00,,,0.00,WUHU216HW,2013-04-09 06:10:00,
2013-04-09 02:15:00,64.4,52.8,30.07,SE,135,0.4,1.8,66,0.00,,,0.00,WUHU216HW,2013-04-09 06:15:00,
2013-04-09 02:20:00,64.4,52.8,30.07,SE,135,0.7,1.8,66,0.00,,,0.00,WUHU216HW,2013-04-09 06:20:00,
2013-04-09 02:25:00,64.4,53.3,30.07,SW,225,0.0,1.8,67,0.00,,,0.00,WUHU216HW,2013-04-09 06:25:00,
2013-04-09 02:30:00,64.3,53.1,30.07,East,90,0.9,1.6,67,0.00,,,0.00,WUHU216HW,2013-04-09 06:30:00,
2013-04-09 02:35:00,64.1,52.9,30.07,SE,135,0.0,1.6,67,0.00,,,0.00,WUHU216HW,2013-04-09 06:35:00,
2013-04-09 02:40:00,64.1,53.3,30.07,South,180,0.0,1.1,68,0.00,,,0.00,WUHU216HW,2013-04-09 06:40:00,
2013-04-09 02:45:00,63.7,53.0,30.07,ESE,113,0.2,1.8,68,0.00,,,0.00,WUHU216HW,2013-04-09 06:45:00,
2013-04-09 02:50:00,63.7,53.4,30.07,SSE,158,0.0,1.8,69,0.00,,,0.00,WUHU216HW,2013-04-09 06:50:00,
2013-04-09 02:55:00,63.7,53.4,30.07,SE,135,0.4,1.1,69,0.00,,,0.00,WUHU216HW,2013-04-09 06:55:00,
2013-04-09 03:00:00,63.5,53.6,30.07,South,180,0.4,1.1,70,0.00,,,0.00,WUHU216HW,2013-04-09 07:00:00,
2013-04-09 03:05:00,63.4,53.5,30.07,SE,135,0.9,1.3,70,0.00,,,0.00,WUHU216HW,2013-04-09 07:05:00,
2013-04-09 03:10:00,63.4,53.5,30.07,SSW,203,0.0,1.3,70,0.00,,,0.00,WUHU216HW,2013-04-09 07:10:00,
2013-04-09 03:15:00,63.2,53.3,30.07,SSE,158,0.0,0.9,70,0.00,,,0.00,WUHU216HW,2013-04-09 07:15:00,
2013-04-09 03:20:00,63.0,53.1,30.07,SSE,158,0.0,0.4,70,0.00,,,0.00,WUHU216HW,2013-04-09 07:20:00,
2013-04-09 03:25:00,63.0,53.1,30.07,SSE,158,0.0,0.0,70,0.00,,,0.00,WUHU216HW,2013-04-09 07:25:00,
2013-04-09 03:30:00,63.0,53.1,30.07,SSE,158,0.0,0.0,70,0.00,,,0.00,WUHU216HW,2013-04-09 07:30:00,
2013-04-09 03:35:00,62.8,52.9,30.07,SSE,158,0.0,0.7,70,0.00,,,0.00,WUHU216HW,2013-04-09 07:35:00,
2013-04-09 03:40:00,62.6,53.1,30.08,SSW,203,0.4,0.7,71,0.00,,,0.00,WUHU216HW,2013-04-09 07:40:00,
2013-04-09 03:45:00,62.6,53.1,30.07,SSW,203,0.0,0.4,71,0.00,,,0.00,WUHU216HW,2013-04-09 07:45:00,
2013-04-09 03:50:00,62.5,52.9,30.08,SSE,158,0.2,0.4,71,0.00,,,0.00,WUHU216HW,2013-04-09 07:50:00,
2013-04-09 03:55:00,62.3,53.1,30.08,SSE,158,0.4,0.7,72,0.00,,,0.00,WUHU216HW,2013-04-09 07:55:00,
2013-04-09 04:00:00,62.3,53.1,30.08,SSE,158,0.0,0.7,72,0.00,,,0.00,WUHU216HW,2013-04-09 08:00:00,
2013-04-09 04:05:00,62.3,53.1,30.08,SSE,158,0.0,0.7,72,0.00,,,0.00,WUHU216HW,2013-04-09 08:05:00,
2013-04-09 04:10:00,62.1,53.0,30.08,SSE,158,0.0,0.0,72,0.00,,,0.00,WUHU216HW,2013-04-09 08:10:00,
2013-04-09 04:15:00,61.9,52.8,30.08,SE,135,0.0,0.7,72,0.00,,,0.00,WUHU216HW,2013-04-09 08:15:00,
2013-04-09 04:20:00,61.7,52.7,30.08,SSE,158,0.2,0.7,72,0.00,,,0.00,WUHU216HW,2013-04-09 08:20:00,
2013-04-09 04:25:00,61.6,52.5,30.08,SSE,158,0.0,0.7,72,0.00,,,0.00,WUHU216HW,2013-04-09 08:25:00,
2013-04-09 04:30:00,61.6,52.5,30.08,SSE,158,0.0,0.7,72,0.00,,,0.00,WUHU216HW,2013-04-09 08:30:00,
2013-04-09 04:35:00,61.6,52.8,30.08,SSE,158,0.0,0.7,73,0.00,,,0.00,WUHU216HW,2013-04-09 08:35:00,
2013-04-09 04:40:00,61.2,52.6,30.08,SSE,158,0.0,0.2,73,0.00,,,0.00,WUHU216HW,2013-04-09 08:40:00,
2013-04-09 04:45:00,61.2,52.6,30.08,SSE,158,0.0,0.0,73,0.00,,,0.00,WUHU216HW,2013-04-09 08:45:00,
2013-04-09 04:50:00,61.0,52.4,30.08,SSE,158,0.0,0.0,73,0.00,,,0.00,WUHU216HW,2013-04-09 08:50:00,
2013-04-09 04:55:00,61.0,52.4,30.08,SSE,158,0.0,0.0,73,0.00,,,0.00,WUHU216HW,2013-04-09 08:55:00,
2013-04-09 05:00:00,60.8,52.2,30.08,SSE,158,0.0,0.0,73,0.00,,,0.00,WUHU216HW,2013-04-09 09:00:00,
2013-04-09 05:05:00,60.8,52.6,30.08,SSW,203,0.0,1.1,74,0.00,,,0.00,WUHU216HW,2013-04-09 09:05:00,
2013-04-09 05:10:00,60.7,52.4,30.08,SSW,203,0.2,1.1,74,0.00,,,0.00,WUHU216HW,2013-04-09 09:10:00,
2013-04-09 05:15:00,60.5,52.6,30.08,SSW,203,0.7,1.1,75,0.00,,,0.00,WUHU216HW,2013-04-09 09:15:00,
2013-04-09 05:21:00,60.3,52.4,30.08,SSW,203,0.4,1.1,75,0.00,,,0.00,WUHU216HW,2013-04-09 09:21:00,
2013-04-09 05:26:00,60.3,52.4,30.08,SSW,203,0.0,0.9,75,0.00,,,0.00,WUHU216HW,2013-04-09 09:26:00,
2013-04-09 05:31:00,60.1,52.2,30.09,South,180,0.0,0.2,75,0.00,,,0.00,WUHU216HW,2013-04-09 09:31:00,
2013-04-09 05:37:00,60.1,52.2,30.09,SSW,203,0.0,0.2,75,0.00,,,0.00,WUHU216HW,2013-04-09 09:37:00,
2013-04-09 05:42:00,59.9,52.0,30.09,SSW,203,0.0,0.0,75,0.00,,,0.00,WUHU216HW,2013-04-09 09:42:00,
2013-04-09 05:47:00,59.9,52.4,30.09,SSW,203,0.0,0.0,76,0.00,,,0.00,WUHU216HW,2013-04-09 09:47:00,
2013-04-09 05:52:00,59.9,52.4,30.09,SSW,203,0.0,0.0,76,0.00,,,0.00,WUHU216HW,2013-04-09 09:52:00,
2013-04-09 05:57:00,59.9,52.4,30.09,SW,225,0.0,0.0,76,0.00,,,0.00,WUHU216HW,2013-04-09 09:57:00,
2013-04-09 06:02:00,59.8,52.2,30.10,SW,225,0.0,0.0,76,0.00,,,0.00,WUHU216HW,2013-04-09 10:02:00,
2013-04-09 06:07:00,59.8,52.2,30.10,SW,225,0.0,0.0,76,0.00,,,0.00,WUHU216HW,2013-04-09 10:07:00,
2013-04-09 06:12:00,59.6,52.0,30.10,SW,225,0.0,0.0,76,0.00,,,0.00,WUHU216HW,2013-04-09 10:12:00,
2013-04-09 06:17:00,59.6,52.4,30.10,SW,225,0.0,0.4,77,0.00,,,0.00,WUHU216HW,2013-04-09 10:17:00,
2013-04-09 06:22:00,59.4,52.2,30.10,SSW,203,0.4,0.4,77,0.00,,,0.00,WUHU216HW,2013-04-09 10:22:00,
2013-04-09 06:27:00,59.4,52.2,30.10,SSW,203,0.7,0.7,77,0.00,,,0.00,WUHU216HW,2013-04-09 10:27:00,
2013-04-09 06:32:00,59.4,52.2,30.10,SSW,203,0.4,0.9,77,0.00,,,0.00,WUHU216HW,2013-04-09 10:32:00,
2013-04-09 06:37:00,59.2,52.4,30.11,SSW,203,0.0,0.9,78,0.00,,,0.00,WUHU216HW,2013-04-09 10:37:00,
2013-04-09 06:42:00,59.2,52.4,30.11,SSW,203,0.4,0.9,78,0.00,,,0.00,WUHU216HW,2013-04-09 10:42:00,
2013-04-09 06:47:00,59.0,52.2,30.11,SSW,203,0.7,0.9,78,0.00,,,0.00,WUHU216HW,2013-04-09 10:47:00,
2013-04-09 06:52:00,59.0,52.2,30.11,SSW,203,0.0,0.9,78,0.00,,,0.00,WUHU216HW,2013-04-09 10:52:00,
2013-04-09 06:57:00,59.0,52.6,30.11,South,180,0.4,1.1,79,0.00,,,0.00,WUHU216HW,2013-04-09 10:57:00,
2013-04-09 07:02:00,58.9,52.4,30.11,SSW,203,0.4,1.1,79,0.00,,,0.00,WUHU216HW,2013-04-09 11:02:00,
2013-04-09 07:07:00,59.0,52.6,30.12,SSW,203,0.4,0.7,79,0.00,,,0.00,WUHU216HW,2013-04-09 11:07:00,
2013-04-09 07:12:00,59.0,52.6,30.12,South,180,0.2,0.9,79,0.00,,,0.00,WUHU216HW,2013-04-09 11:12:00,
2013-04-09 07:17:00,59.0,52.6,30.12,South,180,0.4,0.9,79,0.00,,,0.00,WUHU216HW,2013-04-09 11:17:00,
2013-04-09 07:22:00,59.0,52.9,30.12,SSW,203,0.0,0.9,80,0.00,,,0.00,WUHU216HW,2013-04-09 11:22:00,
2013-04-09 07:27:00,59.0,52.9,30.12,SSW,203,0.4,1.1,80,0.00,,,0.00,WUHU216HW,2013-04-09 11:27:00,
2013-04-09 07:32:00,59.2,53.5,30.12,SW,225,0.9,1.1,81,0.00,,,0.00,WUHU216HW,2013-04-09 11:32:00,
2013-04-09 07:37:00,59.2,53.5,30.12,SW,225,0.4,1.8,81,0.00,,,0.00,WUHU216HW,2013-04-09 11:37:00,
2013-04-09 07:42:00,59.4,53.7,30.12,SW,225,0.9,1.8,81,0.00,,,0.00,WUHU216HW,2013-04-09 11:42:00,
2013-04-09 07:47:00,59.6,53.8,30.12,West,270,0.7,1.8,81,0.00,,,0.00,WUHU216HW,2013-04-09 11:47:00,
2013-04-09 07:52:00,59.8,54.3,30.13,WSW,248,0.7,1.6,82,0.00,,,0.00,WUHU216HW,2013-04-09 11:52:00,
2013-04-09 07:57:00,60.1,54.6,30.13,SSW,203,0.7,1.6,82,0.00,,,0.00,WUHU216HW,2013-04-09 11:57:00,
2013-04-09 08:02:00,60.3,55.2,30.12,SW,225,0.4,1.6,83,0.00,,,0.00,WUHU216HW,2013-04-09 12:02:00,
2013-04-09 08:07:00,60.7,55.5,30.13,ESE,113,1.1,2.5,83,0.00,,,0.00,WUHU216HW,2013-04-09 12:07:00,
2013-04-09 08:12:00,60.8,55.4,30.13,SW,225,1.1,2.5,82,0.00,,,0.00,WUHU216HW,2013-04-09 12:12:00,
2013-04-09 08:17:00,61.2,55.4,30.13,SW,225,1.3,1.8,81,0.00,,,0.00,WUHU216HW,2013-04-09 12:17:00,
2013-04-09 08:22:00,61.6,56.1,30.13,WSW,248,1.8,2.2,82,0.00,,,0.00,WUHU216HW,2013-04-09 12:22:00,
2013-04-09 08:27:00,61.7,55.9,30.13,SSW,203,0.4,2.2,81,0.00,,,0.00,WUHU216HW,2013-04-09 12:27:00,
2013-04-09 08:32:00,62.1,56.2,30.13,WSW,248,1.6,2.7,81,0.00,,,0.00,WUHU216HW,2013-04-09 12:32:00,
2013-04-09 08:37:00,62.6,56.7,30.13,SSE,158,0.7,2.7,81,0.00,,,0.00,WUHU216HW,2013-04-09 12:37:00,
2013-04-09 08:42:00,63.2,56.9,30.13,SW,225,2.9,3.1,80,0.00,,,0.00,WUHU216HW,2013-04-09 12:42:00,
2013-04-09 08:47:00,63.9,57.2,30.13,SW,225,0.9,3.4,79,0.00,,,0.00,WUHU216HW,2013-04-09 12:47:00,
2013-04-09 08:53:00,64.6,58.0,30.13,WSW,248,0.2,4.0,79,0.00,,,0.00,WUHU216HW,2013-04-09 12:53:00,
2013-04-09 08:58:00,65.5,58.5,30.13,West,270,2.5,4.0,78,0.00,,,0.00,WUHU216HW,2013-04-09 12:58:00,
2013-04-09 09:03:00,65.9,58.5,30.13,West,270,1.6,3.4,77,0.00,,,0.00,WUHU216HW,2013-04-09 13:03:00,
2013-04-09 09:08:00,66.4,58.2,30.13,WSW,248,4.0,4.0,75,0.00,,,0.00,WUHU216HW,2013-04-09 13:08:00,
2013-04-09 09:13:00,66.6,58.1,30.13,WSW,248,1.8,4.0,74,0.00,,,0.00,WUHU216HW,2013-04-09 13:13:00,
2013-04-09 09:18:00,67.1,58.6,30.13,SW,225,4.5,4.5,74,0.00,,,0.00,WUHU216HW,2013-04-09 13:18:00,
2013-04-09 09:23:00,67.3,58.0,30.13,SW,225,2.9,5.1,72,0.00,,,0.00,WUHU216HW,2013-04-09 13:23:00,
2013-04-09 09:28:00,67.5,58.1,30.13,SSE,158,1.8,5.1,72,0.00,,,0.00,WUHU216HW,2013-04-09 13:28:00,
2013-04-09 09:33:00,67.9,58.5,30.13,NW,315,0.9,3.6,72,0.00,,,0.00,WUHU216HW,2013-04-09 13:33:00,
2013-04-09 09:38:00,68.0,58.3,30.13,WNW,293,1.8,3.4,71,0.00,,,0.00,WUHU216HW,2013-04-09 13:38:00,
2013-04-09 09:43:00,68.0,58.3,30.13,WSW,248,0.7,2.9,71,0.00,,,0.00,WUHU216HW,2013-04-09 13:43:00,
2013-04-09 09:48:00,68.2,58.2,30.13,SW,225,1.6,3.4,70,0.00,,,0.00,WUHU216HW,2013-04-09 13:48:00,
2013-04-09 09:53:00,68.4,58.3,30.13,South,180,1.8,3.4,70,0.00,,,0.00,WUHU216HW,2013-04-09 13:53:00,
2013-04-09 09:58:00,68.6,58.1,30.13,SW,225,0.9,3.1,69,0.00,,,0.00,WUHU216HW,2013-04-09 13:58:00,
2013-04-09 10:03:00,68.8,58.1,30.13,WNW,293,4.0,4.0,69,0.00,,,0.00,WUHU216HW,2013-04-09 14:03:00,
2013-04-09 10:08:00,68.8,57.8,30.13,SW,225,1.1,4.0,68,0.00,,,0.00,WUHU216HW,2013-04-09 14:08:00,
2013-04-09 10:13:00,68.9,58.0,30.13,WSW,248,1.3,4.0,68,0.00,,,0.00,WUHU216HW,2013-04-09 14:13:00,
2013-04-09 10:18:00,69.1,58.1,30.13,South,180,0.7,3.1,68,0.00,,,0.00,WUHU216HW,2013-04-09 14:18:00,
2013-04-09 10:23:00,69.5,58.0,30.13,SW,225,1.8,3.1,67,0.00,,,0.00,WUHU216HW,2013-04-09 14:23:00,
2013-04-09 10:28:00,69.7,58.1,30.13,NNE,23,0.9,2.2,67,0.00,,,0.00,WUHU216HW,2013-04-09 14:28:00,
2013-04-09 10:33:00,69.8,58.0,30.13,South,180,2.5,2.7,66,0.00,,,0.00,WUHU216HW,2013-04-09 14:33:00,
2013-04-09 10:38:00,70.2,57.9,30.13,SW,225,2.5,4.0,65,0.00,,,0.00,WUHU216HW,2013-04-09 14:38:00,
2013-04-09 10:43:00,70.6,58.2,30.13,SE,135,3.6,4.0,65,0.00,,,0.00,WUHU216HW,2013-04-09 14:43:00,
2013-04-09 10:49:00,70.9,58.2,30.13,SSW,203,2.2,3.6,64,0.00,,,0.00,WUHU216HW,2013-04-09 14:49:00,
2013-04-09 10:54:00,71.6,59.2,30.13,WNW,293,1.8,4.0,65,0.00,,,0.00,WUHU216HW,2013-04-09 14:54:00,
2013-04-09 10:59:00,72.2,59.3,30.13,WSW,248,0.4,4.0,64,0.00,,,0.00,WUHU216HW,2013-04-09 14:59:00,
2013-04-09 11:04:00,72.7,59.0,30.13,SSW,203,1.8,4.0,62,0.00,,,0.00,WUHU216HW,2013-04-09 15:04:00,
2013-04-09 11:09:00,73.3,59.9,30.13,West,270,2.2,4.0,63,0.00,,,0.00,WUHU216HW,2013-04-09 15:09:00,
2013-04-09 11:14:00,73.8,59.5,30.13,West,270,2.9,4.0,61,0.00,,,0.00,WUHU216HW,2013-04-09 15:14:00,
2013-04-09 11:19:00,74.3,59.6,30.13,West,270,0.7,3.8,60,0.00,,,0.00,WUHU216HW,2013-04-09 15:19:00,
2013-04-09 11:24:00,74.7,59.9,30.13,South,180,1.3,3.8,60,0.00,,,0.00,WUHU216HW,2013-04-09 15:24:00,
2013-04-09 11:29:00,75.2,59.5,30.13,WSW,248,3.8,3.8,58,0.00,,,0.00,WUHU216HW,2013-04-09 15:29:00,
2013-04-09 11:34:00,75.6,59.8,30.13,West,270,2.5,3.8,58,0.00,,,0.00,WUHU216HW,2013-04-09 15:34:00,
2013-04-09 11:39:00,76.0,60.1,30.13,West,270,0.2,3.6,58,0.00,,,0.00,WUHU216HW,2013-04-09 15:39:00,
2013-04-09 11:44:00,76.1,60.3,30.13,West,270,2.0,3.1,58,0.00,,,0.00,WUHU216HW,2013-04-09 15:44:00,
2013-04-09 11:49:00,76.5,59.6,30.12,WNW,293,2.2,2.5,56,0.00,,,0.00,WUHU216HW,2013-04-09 15:49:00,
2013-04-09 11:54:00,76.5,59.6,30.12,SW,225,1.8,3.4,56,0.00,,,0.00,WUHU216HW,2013-04-09 15:54:00,
2013-04-09 12:00:00,76.7,59.8,30.12,SE,135,0.2,3.4,56,0.00,,,0.00,WUHU216HW,2013-04-09 16:00:00,
2013-04-09 12:05:00,76.9,60.0,30.12,West,270,2.0,3.6,56,0.00,,,0.00,WUHU216HW,2013-04-09 16:05:00,
2013-04-09 12:10:00,77.0,59.6,30.12,WNW,293,2.9,3.6,55,0.00,,,0.00,WUHU216HW,2013-04-09 16:10:00,
2013-04-09 12:15:00,77.0,59.0,30.12,ESE,113,2.0,3.6,54,0.00,,,0.00,WUHU216HW,2013-04-09 16:15:00,
2013-04-09 12:20:00,77.4,60.0,30.11,South,180,1.8,3.6,55,0.00,,,0.00,WUHU216HW,2013-04-09 16:20:00,
2013-04-09 12:25:00,77.4,59.4,30.11,WNW,293,2.5,3.4,54,0.00,,,0.00,WUHU216HW,2013-04-09 16:25:00,
2013-04-09 12:29:00,77.8,59.8,30.11,SSW,203,1.6,3.4,54,0.00,,,0.00,WUHU216HW,2013-04-09 16:29:00,
2013-04-09 12:34:00,78.1,59.6,30.11,NW,315,0.0,3.6,53,0.00,,,0.00,WUHU216HW,2013-04-09 16:34:00,
2013-04-09 12:39:00,78.1,59.0,30.10,SE,135,0.7,3.6,52,0.00,,,0.00,WUHU216HW,2013-04-09 16:39:00,
2013-04-09 12:45:00,78.5,59.4,30.10,South,180,1.1,2.9,52,0.00,,,0.00,WUHU216HW,2013-04-09 16:45:00,
2013-04-09 12:49:00,78.5,58.9,30.10,South,180,2.7,3.1,51,0.00,,,0.00,WUHU216HW,2013-04-09 16:49:00,
2013-04-09 12:54:00,78.8,59.2,30.10,WSW,248,1.8,3.4,51,0.00,,,0.00,WUHU216HW,2013-04-09 16:54:00,
2013-04-09 13:00:00,79.0,59.4,30.09,SE,135,1.3,3.4,51,0.00,,,0.00,WUHU216HW,2013-04-09 17:00:00,
2013-04-09 13:05:00,79.6,58.2,30.09,NNW,338,1.3,4.7,48,0.00,,,0.00,WUHU216HW,2013-04-09 17:05:00,
2013-04-09 13:10:00,79.9,59.0,30.09,North,0,1.1,4.7,49,0.00,,,0.00,WUHU216HW,2013-04-09 17:10:00,
2013-04-09 13:15:00,80.3,58.1,30.09,West,270,2.0,4.0,47,0.00,,,0.00,WUHU216HW,2013-04-09 17:15:00,
2013-04-09 13:20:00,80.8,58.6,30.09,SW,225,2.2,4.3,47,0.00,,,0.00,WUHU216HW,2013-04-09 17:20:00,
2013-04-09 13:25:00,81.0,59.4,30.09,SE,135,2.5,4.7,48,0.00,,,0.00,WUHU216HW,2013-04-09 17:25:00,
2013-04-09 13:30:00,81.4,59.8,30.08,West,270,2.0,4.7,48,0.00,,,0.00,WUHU216HW,2013-04-09 17:30:00,
2013-04-09 13:35:00,81.7,59.4,30.08,ESE,113,2.2,4.7,47,0.00,,,0.00,WUHU216HW,2013-04-09 17:35:00,
2013-04-09 13:40:00,82.1,58.5,30.08,East,90,0.7,4.7,45,0.00,,,0.00,WUHU216HW,2013-04-09 17:40:00,
2013-04-09 13:45:00,82.4,60.1,30.08,SE,135,2.7,3.6,47,0.00,,,0.00,WUHU216HW,2013-04-09 17:45:00,
2013-04-09 13:50:00,83.0,59.4,30.08,ESE,113,1.8,4.7,45,0.00,,,0.00,WUHU216HW,2013-04-09 17:50:00,
2013-04-09 13:55:00,83.3,58.5,30.08,East,90,4.7,4.7,43,0.00,,,0.00,WUHU216HW,2013-04-09 17:55:00,
2013-04-09 14:00:00,83.9,59.0,30.08,SE,135,0.7,4.7,43,0.00,,,0.00,WUHU216HW,2013-04-09 18:00:00,
2013-04-09 14:05:00,84.4,59.5,30.07,SSE,158,0.2,3.8,43,0.00,,,0.00,WUHU216HW,2013-04-09 18:05:00,
2013-04-09 14:10:00,84.6,59.1,30.07,ESE,113,0.4,3.8,42,0.00,,,0.00,WUHU216HW,2013-04-09 18:10:00,
2013-04-09 14:15:00,85.1,59.5,30.07,SE,135,1.8,3.6,42,0.00,,,0.00,WUHU216HW,2013-04-09 18:15:00,
2013-04-09 14:20:00,85.7,59.3,30.07,SW,225,2.9,3.8,41,0.00,,,0.00,WUHU216HW,2013-04-09 18:20:00,
2013-04-09 14:25:00,85.9,58.9,30.07,SE,135,1.3,4.7,40,0.00,,,0.00,WUHU216HW,2013-04-09 18:25:00,
2013-04-09 14:30:00,85.9,59.5,30.06,SSE,158,0.7,4.7,41,0.00,,,0.00,WUHU216HW,2013-04-09 18:30:00,
2013-04-09 14:35:00,85.7,58.0,30.06,West,270,1.1,3.8,39,0.00,,,0.00,WUHU216HW,2013-04-09 18:35:00,
2013-04-09 14:40:00,85.3,58.4,30.06,SSW,203,1.1,3.8,40,0.00,,,0.00,WUHU216HW,2013-04-09 18:40:00,
2013-04-09 14:45:00,85.7,58.7,30.06,SW,225,1.6,2.5,40,0.00,,,0.00,WUHU216HW,2013-04-09 18:45:00,
2013-04-09 14:50:00,86.0,59.7,30.06,West,270,0.4,3.6,41,0.00,,,0.00,WUHU216HW,2013-04-09 18:50:00,
2013-04-09 14:55:00,86.0,58.2,30.06,SSE,158,1.3,3.6,39,0.00,,,0.00,WUHU216HW,2013-04-09 18:55:00,
2013-04-09 15:00:00,86.4,58.6,30.05,SE,135,1.1,4.7,39,0.00,,,0.00,WUHU216HW,2013-04-09 19:00:00,
2013-04-09 15:05:00,86.4,58.6,30.05,SW,225,2.0,4.7,39,0.00,,,0.00,WUHU216HW,2013-04-09 19:05:00,
2013-04-09 15:10:00,86.4,58.6,30.05,WSW,248,4.3,6.0,39,0.00,,,0.00,WUHU216HW,2013-04-09 19:10:00,
2013-04-09 15:15:00,86.4,56.2,30.05,West,270,1.1,6.0,36,0.00,,,0.00,WUHU216HW,2013-04-09 19:15:00,
2013-04-09 15:20:00,86.4,57.0,30.04,ESE,113,1.3,4.3,37,0.00,,,0.00,WUHU216HW,2013-04-09 19:20:00,
2013-04-09 15:25:00,86.4,57.0,30.04,SW,225,1.1,4.7,37,0.00,,,0.00,WUHU216HW,2013-04-09 19:25:00,
2013-04-09 15:30:00,86.6,58.0,30.04,WNW,293,2.5,5.4,38,0.00,,,0.00,WUHU216HW,2013-04-09 19:30:00,
2013-04-09 15:35:00,86.8,58.1,30.04,SW,225,2.0,5.4,38,0.00,,,0.00,WUHU216HW,2013-04-09 19:35:00,
2013-04-09 15:40:00,86.8,57.3,30.04,WNW,293,1.3,3.6,37,0.00,,,0.00,WUHU216HW,2013-04-09 19:40:00,
2013-04-09 15:45:00,86.8,58.1,30.04,SSE,158,1.1,3.8,38,0.00,,,0.00,WUHU216HW,2013-04-09 19:45:00,
2013-04-09 15:50:00,87.1,59.2,30.03,West,270,4.0,4.0,39,0.00,,,0.00,WUHU216HW,2013-04-09 19:50:00,
2013-04-09 15:55:00,87.1,58.4,30.03,West,270,0.9,4.0,38,0.00,,,0.00,WUHU216HW,2013-04-09 19:55:00,
2013-04-09 16:00:00,87.3,58.6,30.03,SW,225,1.1,4.9,38,0.00,,,0.00,WUHU216HW,2013-04-09 20:00:00,
2013-04-09 16:05:00,87.3,58.6,30.03,South,180,1.3,4.9,38,0.00,,,0.00,WUHU216HW,2013-04-09 20:05:00,
2013-04-09 16:10:00,87.1,56.8,30.03,West,270,5.4,5.4,36,0.00,,,0.00,WUHU216HW,2013-04-09 20:10:00,
2013-04-09 16:15:00,86.8,57.3,30.02,WSW,248,1.1,5.4,37,0.00,,,0.00,WUHU216HW,2013-04-09 20:15:00,
2013-04-09 16:20:00,86.4,57.8,30.02,SW,225,2.5,5.4,38,0.00,,,0.00,WUHU216HW,2013-04-09 20:20:00,
2013-04-09 16:25:00,86.6,58.0,30.02,West,270,1.8,4.7,38,0.00,,,0.00,WUHU216HW,2013-04-09 20:25:00,
2013-04-09 16:30:00,86.6,58.0,30.02,SE,135,1.3,4.5,38,0.00,,,0.00,WUHU216HW,2013-04-09 20:30:00,
2013-04-09 16:35:00,86.4,57.0,30.02,WSW,248,1.6,4.7,37,0.00,,,0.00,WUHU216HW,2013-04-09 20:35:00,
2013-04-09 16:40:00,86.2,57.6,30.01,WNW,293,2.5,4.7,38,0.00,,,0.00,WUHU216HW,2013-04-09 20:40:00,
2013-04-09 16:45:00,86.0,58.2,30.01,SE,135,4.0,4.3,39,0.00,,,0.00,WUHU216HW,2013-04-09 20:45:00,
2013-04-09 16:50:00,86.0,57.4,30.01,SE,135,1.3,4.9,38,0.00,,,0.00,WUHU216HW,2013-04-09 20:50:00,
2013-04-09 16:55:00,86.0,57.4,30.01,SSW,203,2.0,4.9,38,0.00,,,0.00,WUHU216HW,2013-04-09 20:55:00,
2013-04-09 17:01:00,85.9,57.3,30.01,SW,225,2.0,4.9,38,0.00,,,0.00,WUHU216HW,2013-04-09 21:01:00,
2013-04-09 17:06:00,85.9,58.1,30.01,WNW,293,1.1,4.9,39,0.00,,,0.00,WUHU216HW,2013-04-09 21:06:00,
2013-04-09 17:11:00,85.7,58.0,30.01,East,90,1.6,3.4,39,0.00,,,0.00,WUHU216HW,2013-04-09 21:11:00,
2013-04-09 17:16:00,85.7,58.0,30.01,SW,225,0.7,3.4,39,0.00,,,0.00,WUHU216HW,2013-04-09 21:16:00,
2013-04-09 17:21:00,85.5,57.0,30.01,NNW,338,4.0,5.1,38,0.00,,,0.00,WUHU216HW,2013-04-09 21:21:00,
2013-04-09 17:26:00,85.3,57.6,30.01,WSW,248,1.8,5.1,39,0.00,,,0.00,WUHU216HW,2013-04-09 21:26:00,
2013-04-09 17:31:00,85.1,57.4,30.01,SE,135,2.5,4.3,39,0.00,,,0.00,WUHU216HW,2013-04-09 21:31:00,
2013-04-09 17:36:00,85.1,56.6,30.01,SSW,203,2.5,6.0,38,0.00,,,0.00,WUHU216HW,2013-04-09 21:36:00,
2013-04-09 17:41:00,85.0,57.2,30.01,SSE,158,1.8,6.0,39,0.00,,,0.00,WUHU216HW,2013-04-09 21:41:00,
2013-04-09 17:46:00,84.6,57.0,30.01,WSW,248,1.8,3.8,39,0.00,,,0.00,WUHU216HW,2013-04-09 21:46:00,
2013-04-09 17:51:00,84.6,57.0,30.01,SSW,203,2.9,5.1,39,0.00,,,0.00,WUHU216HW,2013-04-09 21:51:00,
2013-04-09 17:56:00,84.6,57.0,30.01,South,180,1.3,5.1,39,0.00,,,0.00,WUHU216HW,2013-04-09 21:56:00,
2013-04-09 18:01:00,84.4,57.6,30.02,South,180,3.1,3.4,40,0.00,,,0.00,WUHU216HW,2013-04-09 22:01:00,
2013-04-09 18:06:00,84.2,57.4,30.01,WSW,248,1.8,4.5,40,0.00,,,0.00,WUHU216HW,2013-04-09 22:06:00,
2013-04-09 18:11:00,84.1,57.2,30.01,SE,135,1.1,4.5,40,0.00,,,0.00,WUHU216HW,2013-04-09 22:11:00,
2013-04-09 18:16:00,83.9,57.1,30.02,SW,225,3.4,5.6,40,0.00,,,0.00,WUHU216HW,2013-04-09 22:16:00,
2013-04-09 18:21:00,83.5,56.8,30.02,West,270,2.0,5.6,40,0.00,,,0.00,WUHU216HW,2013-04-09 22:21:00,
2013-04-09 18:26:00,83.5,56.8,30.02,WSW,248,2.0,5.4,40,0.00,,,0.00,WUHU216HW,2013-04-09 22:26:00,
2013-04-09 18:31:00,83.2,57.1,30.02,SW,225,0.4,5.4,41,0.00,,,0.00,WUHU216HW,2013-04-09 22:31:00,
2013-04-09 18:36:00,83.2,57.1,30.02,West,270,3.1,4.3,41,0.00,,,0.00,WUHU216HW,2013-04-09 22:36:00,
2013-04-09 18:41:00,83.0,56.9,30.02,West,270,0.9,5.4,41,0.00,,,0.00,WUHU216HW,2013-04-09 22:41:00,
2013-04-09 18:46:00,82.8,56.7,30.02,WSW,248,1.8,5.4,41,0.00,,,0.00,WUHU216HW,2013-04-09 22:46:00,
2013-04-09 18:51:00,82.6,56.6,30.02,NW,315,0.7,2.7,41,0.00,,,0.00,WUHU216HW,2013-04-09 22:51:00,
2013-04-09 18:56:00,82.6,57.2,30.02,WSW,248,1.8,2.7,42,0.00,,,0.00,WUHU216HW,2013-04-09 22:56:00,
2013-04-09 19:01:00,82.4,57.1,30.02,West,270,0.4,2.7,42,0.00,,,0.00,WUHU216HW,2013-04-09 23:01:00,
2013-04-09 19:06:00,82.3,56.9,30.02,ESE,113,0.7,2.5,42,0.00,,,0.00,WUHU216HW,2013-04-09 23:06:00,
2013-04-09 19:11:00,82.1,56.7,30.02,SW,225,1.1,2.7,42,0.00,,,0.00,WUHU216HW,2013-04-09 23:11:00,
2013-04-09 19:16:00,81.7,56.3,30.01,SE,135,1.1,4.7,42,0.00,,,0.00,WUHU216HW,2013-04-09 23:16:00,
2013-04-09 19:21:00,81.7,57.0,30.02,SSE,158,0.7,4.7,43,0.00,,,0.00,WUHU216HW,2013-04-09 23:21:00,
2013-04-09 19:26:00,81.5,56.8,30.02,SW,225,1.1,3.6,43,0.00,,,0.00,WUHU216HW,2013-04-09 23:26:00,
2013-04-09 19:31:00,81.4,56.7,30.02,SSW,203,0.9,3.6,43,0.00,,,0.00,WUHU216HW,2013-04-09 23:31:00,
2013-04-09 19:36:00,81.0,57.0,30.02,SE,135,0.7,2.9,44,0.00,,,0.00,WUHU216HW,2013-04-09 23:36:00,
2013-04-09 19:41:00,81.0,57.0,30.02,SSW,203,1.1,2.5,44,0.00,,,0.00,WUHU216HW,2013-04-09 23:41:00,
2013-04-09 19:46:00,80.6,56.6,30.02,SSE,158,0.7,1.8,44,0.00,,,0.00,WUHU216HW,2013-04-09 23:46:00,
2013-04-09 19:51:00,80.5,57.1,30.02,SSE,158,1.1,1.8,45,0.00,,,0.00,WUHU216HW,2013-04-09 23:51:00,
2013-04-09 19:56:00,80.3,56.9,30.02,WSW,248,1.1,1.3,45,0.00,,,0.00,WUHU216HW,2013-04-09 23:56:00,
2013-04-09 20:01:00,80.1,56.8,30.02,ESE,113,0.9,1.3,45,0.00,,,0.00,WUHU216HW,2013-04-10 00:01:00,
2013-04-09 20:06:00,79.9,56.6,30.02,WSW,248,0.7,1.1,45,0.00,,,0.00,WUHU216HW,2013-04-10 00:06:00,
2013-04-09 20:11:00,79.7,56.4,30.02,SSW,203,0.4,2.2,45,0.00,,,0.00,WUHU216HW,2013-04-10 00:11:00,
2013-04-09 20:16:00,79.6,56.9,30.02,SW,225,1.1,2.2,46,0.00,,,0.00,WUHU216HW,2013-04-10 00:16:00,
2013-04-09 20:21:00,79.4,56.7,30.03,SSW,203,0.0,1.6,46,0.00,,,0.00,WUHU216HW,2013-04-10 00:21:00,
2013-04-09 20:26:00,79.2,56.5,30.03,SW,225,0.0,1.8,46,0.00,,,0.00,WUHU216HW,2013-04-10 00:26:00,
2013-04-09 20:31:00,79.0,56.4,30.03,SSE,158,0.0,1.8,46,0.00,,,0.00,WUHU216HW,2013-04-10 00:31:00,
2013-04-09 20:36:00,78.8,56.9,30.03,SW,225,0.0,1.1,47,0.00,,,0.00,WUHU216HW,2013-04-10 00:36:00,
2013-04-09 20:41:00,78.7,56.7,30.03,South,180,0.9,1.1,47,0.00,,,0.00,WUHU216HW,2013-04-10 00:41:00,
2013-04-09 20:46:00,78.5,56.5,30.03,ESE,113,1.1,1.3,47,0.00,,,0.00,WUHU216HW,2013-04-10 00:46:00,
2013-04-09 20:51:00,78.1,56.8,30.03,SSW,203,0.2,2.0,48,0.00,,,0.00,WUHU216HW,2013-04-10 00:51:00,
2013-04-09 20:56:00,78.1,56.8,30.04,SSE,158,0.4,2.0,48,0.00,,,0.00,WUHU216HW,2013-04-10 00:56:00,
2013-04-09 21:01:00,78.1,56.8,30.04,SW,225,0.9,1.1,48,0.00,,,0.00,WUHU216HW,2013-04-10 01:01:00,
2013-04-09 21:06:00,78.1,56.8,30.04,SE,135,0.2,1.1,48,0.00,,,0.00,WUHU216HW,2013-04-10 01:06:00,
2013-04-09 21:11:00,78.1,56.8,30.04,SSE,158,0.4,1.1,48,0.00,,,0.00,WUHU216HW,2013-04-10 01:11:00,
2013-04-09 21:16:00,78.1,56.8,30.04,SE,135,0.4,1.1,48,0.00,,,0.00,WUHU216HW,2013-04-10 01:16:00,
2013-04-09 21:21:00,78.1,56.8,30.05,SE,135,0.2,0.9,48,0.00,,,0.00,WUHU216HW,2013-04-10 01:21:00,
2013-04-09 21:26:00,78.1,57.4,30.05,WSW,248,0.9,0.9,49,0.00,,,0.00,WUHU216HW,2013-04-10 01:26:00,
2013-04-09 21:31:00,77.9,57.2,30.05,SSE,158,0.9,1.1,49,0.00,,,0.00,WUHU216HW,2013-04-10 01:31:00,
2013-04-09 21:36:00,77.8,57.1,30.05,SSE,158,0.2,1.1,49,0.00,,,0.00,WUHU216HW,2013-04-10 01:36:00,
2013-04-09 21:41:00,77.8,57.1,30.05,SE,135,0.9,1.3,49,0.00,,,0.00,WUHU216HW,2013-04-10 01:41:00,
2013-04-09 21:46:00,77.6,57.0,30.05,SE,135,2.2,2.7,49,0.00,,,0.00,WUHU216HW,2013-04-10 01:46:00,
2013-04-09 21:51:00,77.4,56.8,30.05,SSE,158,1.1,2.7,49,0.00,,,0.00,WUHU216HW,2013-04-10 01:51:00,
2013-04-09 21:56:00,77.4,56.8,30.05,SSE,158,0.9,2.2,49,0.00,,,0.00,WUHU216HW,2013-04-10 01:56:00,
2013-04-09 22:01:00,77.2,56.6,30.05,SSE,158,0.7,1.8,49,0.00,,,0.00,WUHU216HW,2013-04-10 02:01:00,
2013-04-09 22:06:00,77.0,56.4,30.05,ESE,113,0.4,1.6,49,0.00,,,0.00,WUHU216HW,2013-04-10 02:06:00,
2013-04-09 22:11:00,77.0,57.1,30.06,SE,135,0.7,1.6,50,0.00,,,0.00,WUHU216HW,2013-04-10 02:11:00,
2013-04-09 22:16:00,76.7,56.7,30.05,East,90,0.4,2.0,50,0.00,,,0.00,WUHU216HW,2013-04-10 02:16:00,
2013-04-09 22:21:00,76.7,56.7,30.05,SE,135,0.9,2.0,50,0.00,,,0.00,WUHU216HW,2013-04-10 02:21:00,
2013-04-09 22:26:00,76.5,56.6,30.05,SSE,158,0.2,1.6,50,0.00,,,0.00,WUHU216HW,2013-04-10 02:26:00,
2013-04-09 22:31:00,76.3,56.4,30.05,SSE,158,1.1,1.6,50,0.00,,,0.00,WUHU216HW,2013-04-10 02:31:00,
2013-04-09 22:36:00,76.3,56.4,30.05,SE,135,1.3,1.8,50,0.00,,,0.00,WUHU216HW,2013-04-10 02:36:00,
2013-04-09 22:41:00,76.0,56.6,30.05,SE,135,1.3,1.8,51,0.00,,,0.00,WUHU216HW,2013-04-10 02:41:00,
2013-04-09 22:46:00,76.0,56.6,30.05,SSW,203,0.7,1.3,51,0.00,,,0.00,WUHU216HW,2013-04-10 02:46:00,
2013-04-09 22:51:00,75.8,56.4,30.05,SE,135,0.7,1.6,51,0.00,,,0.00,WUHU216HW,2013-04-10 02:51:00,
2013-04-09 22:56:00,75.6,56.3,30.04,SE,135,0.4,1.6,51,0.00,,,0.00,WUHU216HW,2013-04-10 02:56:00,
2013-04-09 23:01:00,75.4,56.6,30.05,SSE,158,0.7,1.1,52,0.00,,,0.00,WUHU216HW,2013-04-10 03:01:00,
2013-04-09 23:07:00,75.4,56.6,30.05,SE,135,0.4,1.3,52,0.00,,,0.00,WUHU216HW,2013-04-10 03:07:00,
2013-04-09 23:12:00,75.2,56.4,30.05,SE,135,0.7,1.3,52,0.00,,,0.00,WUHU216HW,2013-04-10 03:12:00,
2013-04-09 23:17:00,75.1,56.3,30.05,ESE,113,0.4,1.1,52,0.00,,,0.00,WUHU216HW,2013-04-10 03:17:00,
2013-04-09 23:22:00,74.9,56.1,30.04,SE,135,0.7,1.1,52,0.00,,,0.00,WUHU216HW,2013-04-10 03:22:00,
2013-04-09 23:27:00,74.7,56.4,30.04,SE,135,1.3,1.6,53,0.00,,,0.00,WUHU216HW,2013-04-10 03:27:00,
2013-04-09 23:32:00,74.5,56.3,30.04,SSE,158,1.6,1.8,53,0.00,,,0.00,WUHU216HW,2013-04-10 03:32:00,
2013-04-09 23:37:00,74.5,56.3,30.04,SE,135,1.1,1.8,53,0.00,,,0.00,WUHU216HW,2013-04-10 03:37:00,
2013-04-09 23:42:00,74.3,56.1,30.04,SSE,158,0.4,1.8,53,0.00,,,0.00,WUHU216HW,2013-04-10 03:42:00,
2013-04-09 23:47:00,74.2,55.9,30.04,SE,135,1.1,1.8,53,0.00,,,0.00,WUHU216HW,2013-04-10 03:47:00,
2013-04-09 23:52:00,74.2,55.9,30.03,SE,135,0.2,1.8,53,0.00,,,0.00,WUHU216HW,2013-04-10 03:52:00,
2013-04-09 23:57:00,74.0,56.2,30.04,SSE,158,1.3,1.8,54,0.00,,,0.00,WUHU216HW,2013-04-10 03:57:00,